SCP
-0 -0 -0 0 0 0 0 0 0 0 0 0 0 0 0 0 0 0 0 0 0 0 0 0 0 0 0 0 0 0 0 0 0 0 0 0 0 0 0 0 0 0 0 0 0 0 0 0 0 0 0 0 0 0
-0 0 0 0 0 0 0 0 0 0 0 0 0 0 0 0 0 0 0 0 0 0 0 0 0 0 0 0 0 0 0 0 0 0 0 0 0 0 0 0 0 0 0 0 0 0 0 0 0 0 0 0 0 0
0 0 0 0 0 0 0 0 0 0 0 0 0 0 0 0 0 0 0 0 0 0 0 0 0 0 0 0 0 0 0 0 0 0 0 0 0 0 0 0 0 0 0 0 0 0 0 0 -0 0 0 0 0 0
0 0 0 0 0 0 0 0 0 0 0 0 0 0 0 0 0 0 0 0 0 0 0 0 0 0 0 0 0 0 0 0 0 0 0 0 0 0 0 0 0 0 0 0 0 0 0 -0 0 -0 -0 0 0 0
0 0 0 0 0 0 0 0 0 0 0 0 0 0 0 0 0 0 0 0 0 0 0 0 0 0 0 0 0 0 0 0 0 0 0 0 0 0 0 0 0 0 0 0 0 -0 -0 0 0 0 0 0 0 0
0 0 0 0 0 0 0 0 0 0 0 0 0 0 0 0 0 0 0 0 0 0 0 0 0 0 0 0 0 0 0 0 0 0 0 0 0 0 -0 -0 -0 0 0 0 0 0 0 0 0 0 0 0 0 0
0 0 0 0 0 0 0 0 0 0 0 0 0 0 0 0 0 0 0 0 0 0 0 0 0 0 0 0 0 0 0 0 0 0 0 0 0 0 -0 -0 -0 -0 0 0 0 0 0 0 0 0 0 0 0 0
-0 -0 -0 0 0 0 0 0 0 0 0 0 0 0 0 0 0 0 0 -0 0 0 0 0 0 0 0 0 0 0 0 0 0 0 0 0 0 0 -0 -0 -0 0 0 0 0 -0 0 0 0 0 0 0 0 0
-0 0 0 0 0 0 0 0 0 0 0 0 0 0 0 0 0 0 0 0 0 0 0 0 0 0 0 0 0 0 0 0 0 0 0 0 0 -0 -0 -0 -0 0 0 0 0 -0 0 0 0 0 0 0 0 0
-0 0 0 0 0 0 0 0 0 0 0 0 0 0 0 0 0 0 0 0 0 0 0 -0 0 0 0 0 0 0 0 0 0 0 0 0 -0 -0 -0 -0 0 0 -0 0 0 0 0 0 0 0 0 0 0 0
0 0 0 0 0 0 0 0 0 0 0 1 0 0 0 0 0 0 0 0 0 0 -0 -0 0 0 0 0 0 0 0 0 0 0 0 -0 -0 -0 -0 0 0 -0 -0 0 0 0 0 0 0 0 0 0 0 0
0 -0 0 0 0 0 0 0 0 0 0 0 0 0 0 0 0 0 0 0 0 0 0 0 0 0 0 0 0 0 0 0 0 0 0 -0 -0 -0 -0 0 0 0 0 0 0 0 0 0 0 0 0 0 0 0
-0 -0 0 0 0 0 0 0 0 0 0 0 0 0 0 0 0 0 0 0 0 0 0 0 0 0 0 0 0 0 0 0 0 0 -0 -0 -0 -0 0 0 0 0 0 0 0 0 0 0 0 0 0 0 0 0
-0 -0 0 0 0 0 0 0 0 0 0 0 0 0 0 0 0 0 0 0 0 0 0 0 0 0 0 0 0 0 0 0 0 0 -0 -0 -0 0 0 0 0 0 0 0 0 0 0 0 0 0 0 0 0 0
0 0 0 0 0 0 0 0 0 0 0 0 0 0 0 0 0 0 0 0 0 0 0 0 0 0 0 0 0 0 0 0 -0 0 0 -0 0 0 0 0 0 0 0 0 0 0 0 0 0 0 0 0 0 0
-0 -0 0 0 0 0 0 0 0 0 0 0 0 0 0 0 0 0 0 0 0 0 0 0 0 0 0 0 0 0 0 0 0 0 0 0 0 0 0 0 0 0 0 0 0 0 0 0 0 0 0 0 0 0
0 0 0 0 0 0 0 0 0 0 0 0 0 0 0 0 0 0 0 0 0 0 0 0 0 0 0 0 0 0 0 0 -0 0 0 0 0 0 0 0 0 0 0 0 0 0 0 0 0 0 0 0 0 0
0 0 0 0 0 0 0 0 -0 0 0 0 0 0 0 0 0 0 0 0 0 0 0 0 0 0 0 0 0 0 0 0 0 0 0 0 0 0 0 0 0 0 0 0 0 0 0 0 0 0 0 0 0 0
0 0 0 0 0 0 0 0 0 0 0 0 0 0 0 0 0 0 0 0 0 0 0 0 0 0 0 0 0 0 0 0 0 0 0 0 0 0 0 0 0 0 0 0 0 0 0 0 0 0 0 0 0 0
0 0 0 0 0 0 -0 -0 -0 0 0 0 0 0 0 0 0 0 0 0 0 0 0 0 0 0 0 0 0 0 0 0 0 0 0 0 0 0 0 0 0 0 0 0 0 0 0 0 0 0 0 0 0 0
0 0 0 0 0 0 0 0 0 0 0 0 0 0 0 0 0 0 0 0 0 0 0 0 0 0 0 0 0 0 0 0 0 0 0 0 0 0 0 0 0 0 0 0 0 0 0 0 0 0 0 0 0 0
0 0 0 0 -0 0 0 0 0 0 0 0 0 0 0 0 0 0 0 0 0 0 0 0 0 0 0 0 0 0 0 0 0 0 0 0 0 0 0 0 0 0 0 0 0 0 0 0 0 0 0 0 0 0
0 0 0 0 -0 0 0 0 0 0 0 0 0 0 0 0 0 0 0 0 0 0 0 0 0 0 0 0 0 0 0 0 0 0 0 0 0 0 0 0 0 0 0 0 0 0 0 0 0 0 0 0 0 0
0 0 0 0 -0 0 0 0 0 0 0 0 0 0 0 0 0 0 0 0 0 0 0 0 0 0 0 0 0 0 0 0 0 0 0 0 0 0 0 0 0 0 0 0 0 0 0 0 0 0 0 0 0 0
0 0 0 0 -0 0 0 0 0 0 0 0 0 0 0 0 0 0 0 0 0 0 0 0 0 0 0 0 0 0 0 0 0 0 0 0 0 0 0 0 0 0 0 0 0 0 0 0 0 0 0 0 0 0
-0 0 0 0 0 0 0 0 0 0 0 0 0 0 0 0 0 -0 -0 0 0 0 0 0 0 0 0 0 0 0 0 0 0 0 0 0 0 0 0 0 0 0 0 0 0 0 0 0 0 0 0 0 0 0
0 0 0 0 0 0 0 0 0 0 0 0 0 0 0 0 0 0 0 0 0 0 0 0 0 0 0 0 0 0 0 0 0 0 0 0 0 0 0 0 0 0 0 0 0 0 0 0 0 0 0 0 0 0
0 0 0 0 0 0 0 0 0 0 0 0 0 0 0 0 0 0 0 0 0 0 0 0 0 0 0 0 0 0 0 0 0 0 0 0 0 0 0 0 0 0 0 0 0 0 0 0 0 0 0 0 0 0
0 0 0 0 0 0 0 0 0 0 0 0 0 0 0 0 0 0 0 0 0 0 0 0 0 0 0 0 0 0 0 0 0 0 0 0 0 0 0 0 0 0 0 0 0 0 0 0 0 0 0 0 0 0
0 0 0 0 0 0 0 0 0 0 0 0 0 0 0 0 0 0 0 0 0 0 0 0 0 0 0 0 0 0 0 0 0 0 0 0 0 0 0 0 0 0 0 0 0 0 0 0 0 0 0 0 0 0
0 0 0 0 0 0 0 0 0 0 0 0 0 0 0 0 0 0 0 0 0 0 0 0 0 0 0 0 0 0 0 0 0 0 0 0 0 0 0 0 0 0 0 0 0 0 0 0 0 0 0 0 0 0
0 0 0 0 0 0 0 0 0 0 0 0 0 0 0 0 0 0 0 0 0 0 0 0 0 0 0 0 0 0 0 0 0 0 0 0 0 0 0 0 0 0 0 0 0 0 0 0 0 0 0 0 0 0
0 0 0 0 0 0 0 0 0 0 0 0 0 0 0 0 0 0 0 0 0 0 0 0 0 0 0 0 0 0 0 0 0 0 0 0 0 0 0 0 0 0 0 0 0 0 0 0 0 0 0 0 0 0
Wind_Speed_500mb
91 81 72 68 61 58 56 57 61 69 81 87 85 88 92 95 93 97 89 79 67 27 37 19 19 7 35 40 14 24 18 11 4 7 7 6 6 9 7 11 12 12 12 7 6 3 18 21 18 16 9 5 12 23
78 68 64 60 56 56 54 55 54 60 75 77 82 88 91 96 94 96 78 84 71 46 18 36 55 41 38 55 48 49 18 25 26 9 3 7 6 5 11 8 5 8 13 11 18 14 13 36 12 33 1 12 14 16
70 66 61 58 57 56 58 58 55 56 70 73 77 84 90 95 96 99 74 72 62 53 54 59 61 51 44 48 48 30 25 35 19 16 20 6 7 8 9 10 8 7 18 6 4 14 40 32 58 16 24 10 11 11
71 65 62 61 61 60 59 61 64 65 66 74 75 84 89 92 92 96 78 64 72 19 11 25 27 58 56 50 61 58 53 35 24 22 10 6 7 17 9 6 8 9 27 13 11 25 25 37 58 56 35 25 20 20
60 61 64 67 69 71 70 71 69 68 69 73 77 79 87 90 88 94 79 60 62 48 12 18 33 31 50 62 55 75 63 35 23 10 5 6 13 10 5 6 6 24 15 12 16 31 23 13 35 60 59 40 34 29
57 61 69 74 77 80 79 79 80 80 76 76 79 79 91 88 87 88 29 61 62 64 13 8 17 24 31 59 50 63 66 66 44 8 6 9 12 13 9 9 17 57 54 64 33 29 25 9 15 35 61 47 43 37
64 68 76 79 82 88 94 97 95 94 90 87 87 82 93 92 105 77 19 23 72 56 9 9 10 8 30 44 51 59 67 43 31 24 7 7 11 17 6 10 12 34 55 66 64 36 25 27 14 21 45 62 47 42
77 76 80 93 102 104 105 105 104 104 101 98 93 86 92 91 92 48 22 26 52 51 12 5 7 5 39 31 20 35 30 20 14 15 16 12 15 6 9 19 38 49 48 47 57 67 54 35 28 21 30 52 60 54
77 85 90 78 81 89 96 102 107 115 111 107 96 86 92 103 56 35 51 55 69 28 15 10 6 7 20 26 23 17 15 4 4 5 8 15 6 12 17 30 39 49 57 49 42 53 61 49 36 32 34 43 62 62
84 81 68 79 90 96 97 111 116 125 121 112 105 80 25 75 61 64 30 22 19 16 15 9 18 6 29 36 8 13 8 7 6 8 14 8 9 63 61 39 34 31 32 38 32 42 53 63 54 48 45 42 43 45
54 56 58 70 83 106 118 121 137 148 140 113 44 19 61 95 64 25 17 14 19 13 24 28 31 3 28 13 8 11 7 6 6 9 11 7 14 29 66 80 76 74 52 41 49 40 40 55 65 64 53 51 44 44
26 23 34 57 116 127 140 135 168 146 90 71 56 89 63 29 11 11 11 11 11 14 22 34 47 39 15 33 10 4 7 6 11 20 7 8 9 35 43 68 82 94 101 85 49 50 50 40 50 59 62 58 53 45
36 44 57 109 140 141 146 171 147 104 118 111 63 14 20 12 11 19 22 9 10 19 27 45 25 39 19 13 12 6 8 8 28 4 9 11 17 46 67 61 49 49 60 74 80 69 49 54 40 43 58 62 55 52
63 72 81 107 146 169 160 139 119 125 117 33 17 13 10 9 10 16 31 28 25 23 73 79 44 21 16 7 7 9 3 8 4 5 14 7 55 54 47 50 46 42 42 45 55 65 54 48 58 44 39 51 58 59
91 100 128 132 144 139 140 126 131 111 44 14 13 8 13 14 16 26 49 42 37 76 86 58 18 13 5 10 2 9 5 12 13 12 8 34 37 52 49 43 38 35 35 36 43 57 50 43 44 51 44 40 48 54
103 114 131 132 122 132 124 119 99 64 27 12 17 10 16 17 7 27 41 39 85 83 80 21 8 8 4 10 12 17 17 15 10 9 40 26 42 60 53 41 34 31 28 27 39 51 47 43 37 38 44 43 44 47
105 103 121 117 124 120 103 83 46 14 12 11 7 17 24 21 31 47 72 90 109 93 17 8 12 17 8 7 9 10 12 8 16 30 38 44 52 63 51 41 37 32 29 30 37 53 49 36 37 38 36 35 37 39
87 132 122 128 111 79 62 35 17 16 16 8 4 17 14 31 51 56 79 95 98 56 37 12 22 11 11 16 6 8 29 12 11 26 38 45 45 50 49 42 34 30 31 29 36 51 49 47 40 34 29 29 38 39
123 127 119 105 75 59 19 12 6 7 10 1 13 27 27 46 55 60 75 86 55 38 35 10 8 9 9 11 18 41 34 32 46 47 42 44 44 46 44 38 35 31 31 30 39 57 53 44 37 33 28 27 33 37
111 112 90 79 63 18 5 7 6 8 4 7 20 13 38 46 62 65 67 51 41 22 6 4 9 9 14 18 35 53 57 54 69 59 51 48 45 43 39 37 34 30 30 32 36 44 55 49 42 35 30 32 35 39
98 83 72 73 16 12 5 6 5 8 7 11 17 28 18 44 46 42 18 25 7 7 6 5 4 5 8 8 24 32 52 71 80 72 76 62 52 45 40 36 32 30 32 36 39 43 44 40 37 35 33 31 30 30
80 81 64 37 13 2 2 2 4 7 6 5 10 18 15 8 12 11 15 6 2 3 2 10 15 8 11 18 26 41 56 62 57 49 54 59 61 51 43 39 36 33 31 31 35 38 39 37 35 34 32 30 31 33
73 56 43 12 6 8 2 6 2 5 5 4 9 7 5 6 12 18 6 4 4 11 24 26 23 25 35 43 51 56 53 46 37 50 48 46 41 39 38 34 29 27 31 35 34 34 34 35 34 33 34 35 35 36
45 20 7 10 4 4 5 7 5 8 9 6 6 7 5 5 9 8 3 4 12 29 30 33 35 46 46 49 50 45 38 30 42 43 42 42 41 37 32 28 26 24 24 31 37 38 37 35 34 34 34 36 39 41
13 4 5 4 3 8 2 4 3 6 6 4 7 4 4 7 5 4 3 4 27 36 38 37 35 37 49 44 39 37 33 28 34 38 37 34 35 34 32 30 27 29 34 38 41 41 39 39 36 31 31 37 42 43
3 4 3 5 7 7 9 5 5 8 8 7 5 9 7 6 5 6 5 27 36 47 44 43 45 46 40 33 36 35 31 29 26 25 27 26 24 19 24 27 29 30 31 35 35 38 40 39 37 35 33 35 40 42
7 4 2 4 6 9 6 8 4 7 8 7 6 7 6 7 10 6 11 25 33 48 44 37 29 23 29 30 28 24 20 18 18 19 19 19 18 17 14 10 13 17 20 26 31 35 37 36 36 36 36 37 38 39
7 6 3 5 7 3 8 6 4 5 5 7 10 5 12 12 7 3 5 15 14 27 41 43 32 25 24 24 21 20 23 23 22 19 17 17 16 18 20 22 21 20 20 24 25 27 30 33 33 33 35 37 38 38
9 12 5 9 8 12 8 6 4 5 6 11 9 7 7 9 12 18 22 21 20 22 32 42 39 32 28 24 22 23 21 19 20 17 13 11 13 13 14 18 22 21 22 25 26 28 29 28 28 30 34 37 37 39
12 11 5 7 8 7 8 9 10 21 21 21 20 45 47 44 41 38 34 33 33 33 30 27 29 25 23 22 23 22 19 15 13 12 11 9 8 11 15 17 19 21 23 27 30 32 33 33 34 36 39 41 43 44
10 9 11 10 6 12 15 30 36 41 49 60 59 62 48 47 61 57 55 52 46 40 38 34 31 26 20 16 13 11 10 9 9 11 12 12 12 13 14 17 21 24 26 28 30 33 36 40 44 47 49 50 49 48
20 18 4 7 5 25 17 19 18 20 31 40 34 29 26 32 20 22 39 33 39 41 38 33 30 29 24 21 17 14 11 7 4 2 3 7 11 14 18 21 24 27 29 31 34 39 43 45 48 51 53 53 52 50
13 19 17 9 12 14 23 12 15 10 23 16 24 22 21 14 16 17 28 30 30 25 19 16 14 14 11 8 3 2 4 6 10 13 16 20 23 26 27 28 30 33 36 39 42 42 42 43 45 47 49 49 49 49
Wind_Direction_500mb
283 278 272 263 257 244 235 235 230 223 219 219 216 212 207 205 203 202 206 207 211 234 250 254 243 198 204 188 162 165 139 216 53 75 116 184 125 201 116 167 174 153 144 179 107 113 270 177 130 168 230 161 157 163
277 270 262 252 245 241 234 229 225 217 212 213 211 209 205 203 201 199 202 209 210 223 253 253 252 246 231 201 193 178 171 153 192 95 72 119 119 140 156 205 174 189 181 180 185 210 238 194 198 206 277 182 166 165
268 262 255 245 240 236 231 227 224 216 210 209 206 204 202 201 199 198 197 199 203 226 256 263 257 234 236 208 184 178 204 188 194 167 149 150 140 139 163 225 157 231 179 198 106 242 235 240 220 223 225 206 182 170
259 254 244 240 236 233 231 230 224 218 212 205 205 200 200 199 197 195 194 198 199 188 235 272 256 247 229 213 206 210 197 198 182 165 120 140 143 195 189 148 166 189 155 180 262 275 271 256 229 230 223 207 192 175
257 250 244 238 237 234 233 225 222 220 212 207 200 198 197 196 193 192 198 203 203 191 214 269 272 241 233 211 216 210 216 205 210 171 102 172 137 134 105 103 220 189 178 175 216 218 209 242 234 215 208 203 195 185
259 253 249 243 237 234 225 221 220 221 215 206 200 196 194 191 185 181 172 206 199 208 272 317 321 242 228 218 218 205 204 192 208 216 164 165 163 184 158 199 241 209 212 221 219 223 219 238 221 212 206 198 199 197
259 259 255 247 239 233 230 231 229 219 212 203 199 194 191 187 184 178 190 195 189 195 223 280 284 240 215 192 180 188 203 206 207 200 192 148 184 184 144 216 218 221 233 233 232 233 224 213 216 220 212 209 208 207
261 262 259 255 247 238 231 225 219 210 204 197 194 191 188 184 178 176 133 153 177 175 180 253 254 255 169 165 157 175 180 173 178 167 170 184 155 177 249 238 237 239 247 242 239 234 237 242 217 215 207 207 207 208
262 266 264 246 233 225 216 207 200 198 194 188 186 181 177 175 173 154 134 149 167 173 184 232 207 179 191 141 128 140 144 95 165 120 209 178 182 214 223 213 230 235 233 237 243 234 228 227 221 216 205 207 212 216
273 266 250 240 225 210 199 192 189 186 181 175 170 166 182 177 170 154 109 141 170 212 233 241 185 205 176 145 124 117 123 150 166 225 166 201 245 237 237 245 264 255 249 233 220 215 217 221 219 214 210 206 207 211
267 263 231 220 205 196 186 181 177 168 168 159 159 149 142 156 149 163 144 161 193 200 206 207 186 180 189 159 135 144 165 153 161 226 175 237 254 236 239 241 240 245 244 238 237 244 239 230 217 216 217 214 213 216
256 207 215 185 178 176 176 169 158 156 156 155 138 128 129 134 146 144 166 177 208 214 190 185 189 190 188 153 121 159 117 127 211 144 142 249 230 232 232 238 241 238 242 240 231 228 229 230 231 225 219 217 218 219
163 160 147 143 152 155 161 152 151 146 144 130 126 134 130 172 145 172 175 194 208 180 168 154 146 156 195 97 82 142 133 186 125 119 226 237 223 224 225 225 228 232 237 239 234 228 227 221 217 218 219 219 221 219
143 145 145 145 146 145 142 144 141 139 130 134 134 151 167 153 203 196 188 193 197 187 154 158 135 183 152 114 137 117 103 121 202 203 231 240 218 212 216 210 216 221 220 220 218 213 214 214 214 216 220 215 216 216
138 142 137 141 136 136 139 138 142 141 146 120 95 193 183 205 185 192 171 166 184 159 149 144 123 137 128 108 170 112 116 228 209 217 227 233 217 196 185 183 192 195 199 204 204 201 204 204 208 212 210 205 210 217
142 141 136 137 138 134 135 137 140 152 165 104 205 165 144 157 172 163 157 159 164 158 149 130 102 82 189 141 152 205 166 209 226 208 214 203 186 179 178 178 178 184 190 192 193 190 191 197 204 204 206 207 207 212
135 141 141 140 138 138 143 147 148 145 65 242 196 182 155 155 172 170 166 158 158 156 161 130 127 187 128 190 202 182 197 213 219 210 200 195 180 177 175 174 178 184 187 186 189 191 193 196 190 184 190 194 199 203
142 140 138 141 144 143 142 149 123 187 222 241 138 125 147 149 149 157 162 160 162 172 154 162 132 171 176 162 216 227 220 218 204 172 168 168 167 169 175 177 178 180 177 175 178 180 183 179 177 179 185 193 197 196
148 149 151 149 144 144 126 166 185 233 232 176 115 114 132 138 153 162 159 166 174 164 131 95 120 172 194 206 181 189 190 179 162 154 158 164 163 164 169 172 168 162 164 168 177 185 183 185 189 190 192 195 199 198
153 152 150 147 141 101 114 142 223 314 335 52 104 124 126 137 152 152 155 154 152 156 63 194 192 201 187 197 194 190 184 168 158 156 155 156 164 173 172 169 169 172 171 170 174 183 191 193 193 195 197 198 201 205
155 158 155 159 140 49 104 148 202 241 99 86 112 106 88 128 139 145 140 132 121 162 203 192 181 182 199 195 179 185 174 169 170 168 163 164 169 173 165 160 160 164 169 171 176 180 188 193 192 193 196 200 204 208
147 156 145 154 180 12 325 289 211 139 90 89 73 81 82 90 104 109 125 153 130 111 144 109 89 101 177 182 174 170 169 167 172 173 166 163 162 166 165 163 165 168 172 178 182 183 182 186 190 193 194 196 201 206
143 147 155 159 145 204 166 303 161 53 92 79 60 65 60 97 135 140 72 186 136 126 119 107 106 118 128 132 141 146 152 159 158 166 167 166 161 161 163 163 170 176 177 176 177 181 186 189 188 190 195 197 204 208
134 138 158 167 196 106 43 350 75 75 62 53 66 88 73 100 120 64 76 295 143 143 131 127 130 126 118 129 132 138 146 157 156 157 163 162 165 167 168 169 173 173 180 180 175 176 183 191 194 197 205 210 212 212
114 181 200 208 109 90 59 290 90 80 92 72 80 46 47 65 69 56 197 229 165 155 145 141 141 140 132 133 138 142 140 143 156 158 161 173 180 173 171 175 178 177 178 185 185 183 185 188 196 206 211 210 211 215
94 206 170 127 121 172 210 146 165 129 114 91 101 123 107 87 86 206 227 184 173 166 162 157 152 145 137 143 150 147 143 145 153 161 163 166 176 184 181 183 186 189 193 195 195 195 200 204 206 210 214 213 217 222
136 326 42 110 123 141 94 82 101 96 99 118 149 127 115 124 215 237 182 191 181 182 186 180 170 154 151 155 153 155 159 162 161 162 162 165 169 172 168 181 195 194 207 209 211 212 217 219 220 224 228 229 230 232
75 52 116 41 69 357 132 108 101 104 131 139 128 103 136 167 193 74 109 154 173 180 183 185 182 168 152 147 151 170 178 178 175 170 167 172 180 187 189 184 180 186 205 217 219 223 228 230 233 238 242 245 246 244
56 1 26 34 55 55 32 16 91 80 121 185 143 152 142 80 53 84 90 102 105 130 154 170 168 168 167 168 176 182 184 191 197 192 195 205 210 207 204 207 212 219 231 238 235 228 222 225 231 242 250 253 255 254
27 5 102 56 52 53 13 44 82 91 86 80 93 101 84 72 65 71 75 80 88 94 110 133 151 161 166 175 182 185 190 191 194 213 225 220 212 210 217 225 230 234 237 239 241 240 240 241 241 242 246 251 256 260
356 46 68 68 77 15 66 86 76 73 78 84 102 96 97 90 77 73 74 74 74 78 86 92 101 102 110 119 132 149 163 186 204 215 222 229 240 244 241 244 247 249 250 250 249 248 247 248 251 254 256 258 263 265
29 23 49 74 49 38 64 51 51 55 64 68 56 83 93 97 81 49 44 76 89 86 80 84 88 84 85 85 91 99 107 125 136 174 274 277 281 284 285 285 284 283 278 271 263 258 256 256 257 258 259 260 261 260
30 36 48 63 31 18 8 30 46 51 39 47 43 44 45 58 76 33 41 47 50 43 47 57 69 74 75 79 98 190 247 262 273 276 278 281 283 283 282 280 278 277 276 275 274 271 266 260 258 259 261 263 264 264
Wind_Speed_850mb
91 81 72 68 61 58 56 57 61 69 81 87 85 88 92 95 93 97 89 79 67 27 37 19 19 7 35 40 14 24 18 11 4 7 7 6 6 9 7 11 12 12 12 7 6 3 18 21 18 16 9 5 12 23
78 68 64 60 56 56 54 55 54 60 75 77 82 88 91 96 94 96 78 84 71 46 18 36 55 41 38 55 48 49 18 25 26 9 3 7 6 5 11 8 5 8 13 11 18 14 13 36 12 33 1 12 14 16
70 66 61 58 57 56 58 58 55 56 70 73 77 84 90 95 96 99 74 72 62 53 54 59 61 51 44 48 48 30 25 35 19 16 20 6 7 8 9 10 8 7 18 6 4 14 40 32 58 16 24 10 11 11
71 65 62 61 61 60 59 61 64 65 66 74 75 84 89 92 92 96 78 64 72 19 11 25 27 58 56 50 61 58 53 35 24 22 10 6 7 17 9 6 8 9 27 13 11 25 25 37 58 56 35 25 20 20
60 61 64 67 69 71 70 71 69 68 69 73 77 79 87 90 88 94 79 60 62 48 12 18 33 31 50 62 55 75 63 35 23 10 5 6 13 10 5 6 6 24 15 12 16 31 23 13 35 60 59 40 34 29
57 61 69 74 77 80 79 79 80 80 76 76 79 79 91 88 87 88 29 61 62 64 13 8 17 24 31 59 50 63 66 66 44 8 6 9 12 13 9 9 17 57 54 64 33 29 25 9 15 35 61 47 43 37
64 68 76 79 82 88 94 97 95 94 90 87 87 82 93 92 105 77 19 23 72 56 9 9 10 8 30 44 51 59 67 43 31 24 7 7 11 17 6 10 12 34 55 66 64 36 25 27 14 21 45 62 47 42
77 76 80 93 102 104 105 105 104 104 101 98 93 86 92 91 92 48 22 26 52 51 12 5 7 5 39 31 20 35 30 20 14 15 16 12 15 6 9 19 38 49 48 47 57 67 54 35 28 21 30 52 60 54
77 85 90 78 81 89 96 102 107 115 111 107 96 86 92 103 56 35 51 55 69 28 15 10 6 7 20 26 23 17 15 4 4 5 8 15 6 12 17 30 39 49 57 49 42 53 61 49 36 32 34 43 62 62
84 81 68 79 90 96 97 111 116 125 121 112 105 80 25 75 61 64 30 22 19 16 15 9 18 6 29 36 8 13 8 7 6 8 14 8 9 63 61 39 34 31 32 38 32 42 53 63 54 48 45 42 43 45
54 56 58 70 83 106 118 121 137 148 140 113 44 19 61 95 64 25 17 14 19 13 24 28 31 3 28 13 8 11 7 6 6 9 11 7 14 29 66 80 76 74 52 41 49 40 40 55 65 64 53 51 44 44
26 23 34 57 116 127 140 135 168 146 90 71 56 89 63 29 11 11 11 11 11 14 22 34 47 39 15 33 10 4 7 6 11 20 7 8 9 35 43 68 82 94 101 85 49 50 50 40 50 59 62 58 53 45
36 44 57 109 140 141 146 171 147 104 118 111 63 14 20 12 11 19 22 9 10 19 27 45 25 39 19 13 12 6 8 8 28 4 9 11 17 46 67 61 49 49 60 74 80 69 49 54 40 43 58 62 55 52
63 72 81 107 146 169 160 139 119 125 117 33 17 13 10 9 10 16 31 28 25 23 73 79 44 21 16 7 7 9 3 8 4 5 14 7 55 54 47 50 46 42 42 45 55 65 54 48 58 44 39 51 58 59
91 100 128 132 144 139 140 126 131 111 44 14 13 8 13 14 16 26 49 42 37 76 86 58 18 13 5 10 2 9 5 12 13 12 8 34 37 52 49 43 38 35 35 36 43 57 50 43 44 51 44 40 48 54
103 114 131 132 122 132 124 119 99 64 27 12 17 10 16 17 7 27 41 39 85 83 80 21 8 8 4 10 12 17 17 15 10 9 40 26 42 60 53 41 34 31 28 27 39 51 47 43 37 38 44 43 44 47
105 103 121 117 124 120 103 83 46 14 12 11 7 17 24 21 31 47 72 90 109 93 17 8 12 17 8 7 9 10 12 8 16 30 38 44 52 63 51 41 37 32 29 30 37 53 49 36 37 38 36 35 37 39
87 132 122 128 111 79 62 35 17 16 16 8 4 17 14 31 51 56 79 95 98 56 37 12 22 11 11 16 6 8 29 12 11 26 38 45 45 50 49 42 34 30 31 29 36 51 49 47 40 34 29 29 38 39
123 127 119 105 75 59 19 12 6 7 10 1 13 27 27 46 55 60 75 86 55 38 35 10 8 9 9 11 18 41 34 32 46 47 42 44 44 46 44 38 35 31 31 30 39 57 53 44 37 33 28 27 33 37
111 112 90 79 63 18 5 7 6 8 4 7 20 13 38 46 62 65 67 51 41 22 6 4 9 9 14 18 35 53 57 54 69 59 51 48 45 43 39 37 34 30 30 32 36 44 55 49 42 35 30 32 35 39
98 83 72 73 16 12 5 6 5 8 7 11 17 28 18 44 46 42 18 25 7 7 6 5 4 5 8 8 24 32 52 71 80 72 76 62 52 45 40 36 32 30 32 36 39 43 44 40 37 35 33 31 30 30
80 81 64 37 13 2 2 2 4 7 6 5 10 18 15 8 12 11 15 6 2 3 2 10 15 8 11 18 26 41 56 62 57 49 54 59 61 51 43 39 36 33 31 31 35 38 39 37 35 34 32 30 31 33
73 56 43 12 6 8 2 6 2 5 5 4 9 7 5 6 12 18 6 4 4 11 24 26 23 25 35 43 51 56 53 46 37 50 48 46 41 39 38 34 29 27 31 35 34 34 34 35 34 33 34 35 35 36
45 20 7 10 4 4 5 7 5 8 9 6 6 7 5 5 9 8 3 4 12 29 30 33 35 46 46 49 50 45 38 30 42 43 42 42 41 37 32 28 26 24 24 31 37 38 37 35 34 34 34 36 39 41
13 4 5 4 3 8 2 4 3 6 6 4 7 4 4 7 5 4 3 4 27 36 38 37 35 37 49 44 39 37 33 28 34 38 37 34 35 34 32 30 27 29 34 38 41 41 39 39 36 31 31 37 42 43
3 4 3 5 7 7 9 5 5 8 8 7 5 9 7 6 5 6 5 27 36 47 44 43 45 46 40 33 36 35 31 29 26 25 27 26 24 19 24 27 29 30 31 35 35 38 40 39 37 35 33 35 40 42
7 4 2 4 6 9 6 8 4 7 8 7 6 7 6 7 10 6 11 25 33 48 44 37 29 23 29 30 28 24 20 18 18 19 19 19 18 17 14 10 13 17 20 26 31 35 37 36 36 36 36 37 38 39
7 6 3 5 7 3 8 6 4 5 5 7 10 5 12 12 7 3 5 15 14 27 41 43 32 25 24 24 21 20 23 23 22 19 17 17 16 18 20 22 21 20 20 24 25 27 30 33 33 33 35 37 38 38
9 12 5 9 8 12 8 6 4 5 6 11 9 7 7 9 12 18 22 21 20 22 32 42 39 32 28 24 22 23 21 19 20 17 13 11 13 13 14 18 22 21 22 25 26 28 29 28 28 30 34 37 37 39
12 11 5 7 8 7 8 9 10 21 21 21 20 45 47 44 41 38 34 33 33 33 30 27 29 25 23 22 23 22 19 15 13 12 11 9 8 11 15 17 19 21 23 27 30 32 33 33 34 36 39 41 43 44
10 9 11 10 6 12 15 30 36 41 49 60 59 62 48 47 61 57 55 52 46 40 38 34 31 26 20 16 13 11 10 9 9 11 12 12 12 13 14 17 21 24 26 28 30 33 36 40 44 47 49 50 49 48
20 18 4 7 5 25 17 19 18 20 31 40 34 29 26 32 20 22 39 33 39 41 38 33 30 29 24 21 17 14 11 7 4 2 3 7 11 14 18 21 24 27 29 31 34 39 43 45 48 51 53 53 52 50
13 19 17 9 12 14 23 12 15 10 23 16 24 22 21 14 16 17 28 30 30 25 19 16 14 14 11 8 3 2 4 6 10 13 16 20 23 26 27 28 30 33 36 39 42 42 42 43 45 47 49 49 49 49
Wind_Direction_850mb
283 278 272 263 257 244 235 235 230 223 219 219 216 212 207 205 203 202 206 207 211 234 250 254 243 198 204 188 162 165 139 216 53 75 116 184 125 201 116 167 174 153 144 179 107 113 270 177 130 168 230 161 157 163
277 270 262 252 245 241 234 229 225 217 212 213 211 209 205 203 201 199 202 209 210 223 253 253 252 246 231 201 193 178 171 153 192 95 72 119 119 140 156 205 174 189 181 180 185 210 238 194 198 206 277 182 166 165
268 262 255 245 240 236 231 227 224 216 210 209 206 204 202 201 199 198 197 199 203 226 256 263 257 234 236 208 184 178 204 188 194 167 149 150 140 139 163 225 157 231 179 198 106 242 235 240 220 223 225 206 182 170
259 254 244 240 236 233 231 230 224 218 212 205 205 200 200 199 197 195 194 198 199 188 235 272 256 247 229 213 206 210 197 198 182 165 120 140 143 195 189 148 166 189 155 180 262 275 271 256 229 230 223 207 192 175
257 250 244 238 237 234 233 225 222 220 212 207 200 198 197 196 193 192 198 203 203 191 214 269 272 241 233 211 216 210 216 205 210 171 102 172 137 134 105 103 220 189 178 175 216 218 209 242 234 215 208 203 195 185
259 253 249 243 237 234 225 221 220 221 215 206 200 196 194 191 185 181 172 206 199 208 272 317 321 242 228 218 218 205 204 192 208 216 164 165 163 184 158 199 241 209 212 221 219 223 219 238 221 212 206 198 199 197
259 259 255 247 239 233 230 231 229 219 212 203 199 194 191 187 184 178 190 195 189 195 223 280 284 240 215 192 180 188 203 206 207 200 192 148 184 184 144 216 218 221 233 233 232 233 224 213 216 220 212 209 208 207
261 262 259 255 247 238 231 225 219 210 204 197 194 191 188 184 178 176 133 153 177 175 180 253 254 255 169 165 157 175 180 173 178 167 170 184 155 177 249 238 237 239 247 242 239 234 237 242 217 215 207 207 207 208
262 266 264 246 233 225 216 207 200 198 194 188 186 181 177 175 173 154 134 149 167 173 184 232 207 179 191 141 128 140 144 95 165 120 209 178 182 214 223 213 230 235 233 237 243 234 228 227 221 216 205 207 212 216
273 266 250 240 225 210 199 192 189 186 181 175 170 166 182 177 170 154 109 141 170 212 233 241 185 205 176 145 124 117 123 150 166 225 166 201 245 237 237 245 264 255 249 233 220 215 217 221 219 214 210 206 207 211
267 263 231 220 205 196 186 181 177 168 168 159 159 149 142 156 149 163 144 161 193 200 206 207 186 180 189 159 135 144 165 153 161 226 175 237 254 236 239 241 240 245 244 238 237 244 239 230 217 216 217 214 213 216
256 207 215 185 178 176 176 169 158 156 156 155 138 128 129 134 146 144 166 177 208 214 190 185 189 190 188 153 121 159 117 127 211 144 142 249 230 232 232 238 241 238 242 240 231 228 229 230 231 225 219 217 218 219
163 160 147 143 152 155 161 152 151 146 144 130 126 134 130 172 145 172 175 194 208 180 168 154 146 156 195 97 82 142 133 186 125 119 226 237 223 224 225 225 228 232 237 239 234 228 227 221 217 218 219 219 221 219
143 145 145 145 146 145 142 144 141 139 130 134 134 151 167 153 203 196 188 193 197 187 154 158 135 183 152 114 137 117 103 121 202 203 231 240 218 212 216 210 216 221 220 220 218 213 214 214 214 216 220 215 216 216
138 142 137 141 136 136 139 138 142 141 146 120 95 193 183 205 185 192 171 166 184 159 149 144 123 137 128 108 170 112 116 228 209 217 227 233 217 196 185 183 192 195 199 204 204 201 204 204 208 212 210 205 210 217
142 141 136 137 138 134 135 137 140 152 165 104 205 165 144 157 172 163 157 159 164 158 149 130 102 82 189 141 152 205 166 209 226 208 214 203 186 179 178 178 178 184 190 192 193 190 191 197 204 204 206 207 207 212
135 141 141 140 138 138 143 147 148 145 65 242 196 182 155 155 172 170 166 158 158 156 161 130 127 187 128 190 202 182 197 213 219 210 200 195 180 177 175 174 178 184 187 186 189 191 193 196 190 184 190 194 199 203
142 140 138 141 144 143 142 149 123 187 222 241 138 125 147 149 149 157 162 160 162 172 154 162 132 171 176 162 216 227 220 218 204 172 168 168 167 169 175 177 178 180 177 175 178 180 183 179 177 179 185 193 197 196
148 149 151 149 144 144 126 166 185 233 232 176 115 114 132 138 153 162 159 166 174 164 131 95 120 172 194 206 181 189 190 179 162 154 158 164 163 164 169 172 168 162 164 168 177 185 183 185 189 190 192 195 199 198
153 152 150 147 141 101 114 142 223 314 335 52 104 124 126 137 152 152 155 154 152 156 63 194 192 201 187 197 194 190 184 168 158 156 155 156 164 173 172 169 169 172 171 170 174 183 191 193 193 195 197 198 201 205
155 158 155 159 140 49 104 148 202 241 99 86 112 106 88 128 139 145 140 132 121 162 203 192 181 182 199 195 179 185 174 169 170 168 163 164 169 173 165 160 160 164 169 171 176 180 188 193 192 193 196 200 204 208
147 156 145 154 180 12 325 289 211 139 90 89 73 81 82 90 104 109 125 153 130 111 144 109 89 101 177 182 174 170 169 167 172 173 166 163 162 166 165 163 165 168 172 178 182 183 182 186 190 193 194 196 201 206
143 147 155 159 145 204 166 303 161 53 92 79 60 65 60 97 135 140 72 186 136 126 119 107 106 118 128 132 141 146 152 159 158 166 167 166 161 161 163 163 170 176 177 176 177 181 186 189 188 190 195 197 204 208
134 138 158 167 196 106 43 350 75 75 62 53 66 88 73 100 120 64 76 295 143 143 131 127 130 126 118 129 132 138 146 157 156 157 163 162 165 167 168 169 173 173 180 180 175 176 183 191 194 197 205 210 212 212
114 181 200 208 109 90 59 290 90 80 92 72 80 46 47 65 69 56 197 229 165 155 145 141 141 140 132 133 138 142 140 143 156 158 161 173 180 173 171 175 178 177 178 185 185 183 185 188 196 206 211 210 211 215
94 206 170 127 121 172 210 146 165 129 114 91 101 123 107 87 86 206 227 184 173 166 162 157 152 145 137 143 150 147 143 145 153 161 163 166 176 184 181 183 186 189 193 195 195 195 200 204 206 210 214 213 217 222
136 326 42 110 123 141 94 82 101 96 99 118 149 127 115 124 215 237 182 191 181 182 186 180 170 154 151 155 153 155 159 162 161 162 162 165 169 172 168 181 195 194 207 209 211 212 217 219 220 224 228 229 230 232
75 52 116 41 69 357 132 108 101 104 131 139 128 103 136 167 193 74 109 154 173 180 183 185 182 168 152 147 151 170 178 178 175 170 167 172 180 187 189 184 180 186 205 217 219 223 228 230 233 238 242 245 246 244
56 1 26 34 55 55 32 16 91 80 121 185 143 152 142 80 53 84 90 102 105 130 154 170 168 168 167 168 176 182 184 191 197 192 195 205 210 207 204 207 212 219 231 238 235 228 222 225 231 242 250 253 255 254
27 5 102 56 52 53 13 44 82 91 86 80 93 101 84 72 65 71 75 80 88 94 110 133 151 161 166 175 182 185 190 191 194 213 225 220 212 210 217 225 230 234 237 239 241 240 240 241 241 242 246 251 256 260
356 46 68 68 77 15 66 86 76 73 78 84 102 96 97 90 77 73 74 74 74 78 86 92 101 102 110 119 132 149 163 186 204 215 222 229 240 244 241 244 247 249 250 250 249 248 247 248 251 254 256 258 263 265
29 23 49 74 49 38 64 51 51 55 64 68 56 83 93 97 81 49 44 76 89 86 80 84 88 84 85 85 91 99 107 125 136 174 274 277 281 284 285 285 284 283 278 271 263 258 256 256 257 258 259 260 261 260
30 36 48 63 31 18 8 30 46 51 39 47 43 44 45 58 76 33 41 47 50 43 47 57 69 74 75 79 98 190 247 262 273 276 278 281 283 283 282 280 278 277 276 275 274 271 266 260 258 259 261 263 264 264